Форум Города N

Информация о пользователе

Привет, Гость! Войдите или зарегистрируйтесь.


Вы здесь » Форум Города N » Black Metal


Black Metal

Тем 461 страница 480 из 521

Тема Ответов Просмотров Последнее сообщение
461 666 [Black Metal]  MoonTemple
0 60 2008-05-09 16:32:21  MoonTemple
0 75 2008-05-09 16:09:14  MoonTemple
463 Numen [Black/Folk Metal]  MoonTemple
0 56 2008-05-09 02:39:01  MoonTemple
464 Spetälsk [True Black]  MoonTemple
0 65 2008-05-09 00:55:39  MoonTemple
0 66 2008-05-08 23:07:47  MoonTemple
466 Nåstrond [Black Metal]  MoonTemple
0 84 2008-05-08 22:41:24  MoonTemple
467 Mütiilation [Black Metal]  dying_inside
1 183 2008-05-08 20:48:30  dying_inside
0 79 2008-05-08 18:49:04  MoonTemple
469 Morok [Pagan Black Metal]  Gloomyrain
6 494 2008-05-08 13:25:58  кезиво
0 75 2008-05-08 00:43:01  MoonTemple
0 95 2008-05-04 08:13:53  MoonTemple
0 116 2008-05-02 22:30:43  MoonTemple
0 81 2008-05-02 00:55:42  MoonTemple
474 Blackwinds [Black Metal]  Gloomyrain
0 73 2008-04-29 20:55:47  Gloomyrain
475 Weltkrieg [Black Metal]  MoonTemple
1 143 2008-04-26 14:13:57  Gloomyrain
476 Bann [Depressive Black]  MoonTemple
3 126 2008-04-26 14:02:29  HA7tur
0 112 2008-04-26 11:10:31  Gloomyrain
478 Sorgsvart [Folk Black]  MoonTemple
1 169 2008-04-25 20:15:34  Tony_colpachNIK
3 167 2008-04-24 22:18:17  HA7tur
1 114 2008-04-24 19:10:33  dying_inside

Вы здесь » Форум Города N » Black Metal


Рейтинг форумов | Создать форум бесплатно © 2007–2017 «QuadroSystems» LLC